TimeCST,TemperatureF,Dew PointF,Humidity,Sea Level PressureIn,VisibilityMPH,Wind Direction,Wind SpeedMPH,Gust SpeedMPH,PrecipitationIn,Events,Conditions,WindDirDegrees,DateUTC
12:15 AM,14.0,10.4,86,29.94,10.0,WSW,10.4,-,N/A,,Overcast,250,2013-12-17 06:15:00
12:35 AM,14.0,10.4,86,29.94,7.0,West,13.8,17.3,N/A,,Overcast,270,2013-12-17 06:35:00
12:55 AM,14.0,10.4,86,29.95,7.0,West,12.7,16.1,N/A,Snow,Light Snow,260,2013-12-17 06:55:00
1:15 AM,14.0,10.4,86,29.95,4.0,West,10.4,-,N/A,Snow,Light Snow,260,2013-12-17 07:15:00
1:35 AM,14.0,10.4,86,29.96,2.5,West,16.1,19.6,N/A,Snow,Light Snow,270,2013-12-17 07:35:00
1:55 AM,14.0,10.4,86,29.96,2.5,West,17.3,23.0,N/A,Snow,Light Snow,260,2013-12-17 07:55:00
2:15 AM,14.0,10.4,86,29.95,4.0,WSW,9.2,-,N/A,Snow,Light Snow,250,2013-12-17 08:15:00
2:35 AM,14.0,10.4,86,29.93,3.0,WSW,10.4,-,N/A,Snow,Light Snow,240,2013-12-17 08:35:00
2:55 AM,14.0,10.4,86,29.94,4.0,WSW,13.8,17.3,N/A,Snow,Light Snow,250,2013-12-17 08:55:00
3:15 AM,14.0,10.4,86,29.92,4.0,SW,9.2,-,N/A,Snow,Light Snow,230,2013-12-17 09:15:00
3:35 AM,14.0,10.4,86,29.90,4.0,SW,9.2,-,N/A,Snow,Light Snow,230,2013-12-17 09:35:00
3:55 AM,14.0,12.2,93,29.89,5.0,SW,9.2,-,N/A,Snow,Light Snow,230,2013-12-17 09:55:00
4:15 AM,14.0,12.2,93,29.89,5.0,SW,6.9,-,N/A,,Overcast,230,2013-12-17 10:15:00
4:35 AM,15.8,12.2,86,29.88,5.0,SW,9.2,-,N/A,,Overcast,220,2013-12-17 10:35:00
4:55 AM,15.8,12.2,86,29.88,5.0,SW,8.1,-,N/A,,Overcast,220,2013-12-17 10:55:00
5:15 AM,17.6,14.0,86,29.87,7.0,SSW,9.2,-,N/A,,Overcast,210,2013-12-17 11:15:00
5:35 AM,17.6,14.0,86,29.86,3.0,SW,6.9,-,N/A,Snow,Light Snow,220,2013-12-17 11:35:00
5:55 AM,19.4,15.8,86,29.86,1.2,SW,10.4,-,N/A,Snow,Light Snow,230,2013-12-17 11:55:00
6:15 AM,19.4,15.8,86,29.85,3.0,WSW,12.7,16.1,N/A,Snow,Light Snow,240,2013-12-17 12:15:00
6:35 AM,21.2,15.8,80,29.84,7.0,WSW,9.2,-,N/A,,Overcast,240,2013-12-17 12:35:00
6:55 AM,21.2,17.6,86,29.84,7.0,WSW,12.7,17.3,N/A,,Overcast,240,2013-12-17 12:55:00
7:15 AM,21.2,17.6,86,29.84,7.0,WSW,12.7,19.6,N/A,,Mostly Cloudy,240,2013-12-17 13:15:00
7:35 AM,21.2,17.6,86,29.84,5.0,WSW,11.5,16.1,N/A,,Mostly Cloudy,240,2013-12-17 13:35:00
7:55 AM,21.2,17.6,86,29.84,5.0,WSW,10.4,17.3,N/A,,Overcast,250,2013-12-17 13:55:00
8:15 AM,23.0,17.6,80,29.84,5.0,WSW,10.4,-,N/A,Snow,Light Snow,250,2013-12-17 14:15:00
8:35 AM,23.0,19.4,86,29.84,7.0,WSW,11.5,-,N/A,,Overcast,250,2013-12-17 14:35:00
8:55 AM,23.0,19.4,86,29.84,5.0,WSW,12.7,-,N/A,,Haze,250,2013-12-17 14:55:00
9:15 AM,24.8,19.4,80,29.85,7.0,West,13.8,19.6,N/A,,Overcast,260,2013-12-17 15:15:00
9:35 AM,26.6,21.2,80,29.85,7.0,West,16.1,24.2,N/A,,Overcast,260,2013-12-17 15:35:00
9:55 AM,26.6,21.2,80,29.85,5.0,West,16.1,21.9,N/A,,Haze,270,2013-12-17 15:55:00
10:35 AM,28.4,21.2,74,29.85,7.0,West,17.3,24.2,N/A,,Scattered Clouds,260,2013-12-17 16:35:00
10:55 AM,30.2,21.2,69,29.85,10.0,West,13.8,-,N/A,,Scattered Clouds,270,2013-12-17 16:55:00
11:15 AM,30.2,23.0,75,29.85,10.0,West,13.8,26.5,N/A,,Mostly Cloudy,270,2013-12-17 17:15:00
11:35 AM,30.2,23.0,75,29.85,10.0,West,12.7,20.7,N/A,,Mostly Cloudy,270,2013-12-17 17:35:00
11:55 AM,30.2,23.0,75,29.85,10.0,West,13.8,-,N/A,,Overcast,270,2013-12-17 17:55:00
12:15 PM,30.2,23.0,75,29.85,10.0,West,11.5,18.4,N/A,,Overcast,270,2013-12-17 18:15:00
12:35 PM,30.2,23.0,75,29.85,10.0,West,9.2,-,N/A,,Overcast,270,2013-12-17 18:35:00
12:55 PM,30.2,23.0,75,29.85,10.0,West,10.4,17.3,N/A,,Overcast,280,2013-12-17 18:55:00
1:15 PM,32.0,23.0,69,29.85,10.0,West,11.5,-,N/A,,Overcast,280,2013-12-17 19:15:00
1:55 PM,32.0,21.2,64,29.85,10.0,WNW,10.4,-,N/A,,Mostly Cloudy,290,2013-12-17 19:55:00
2:15 PM,32.0,21.2,64,29.85,10.0,West,13.8,17.3,N/A,,Scattered Clouds,280,2013-12-17 20:15:00
2:35 PM,32.0,19.4,60,29.85,10.0,WNW,10.4,-,N/A,,Mostly Cloudy,290,2013-12-17 20:35:00
2:55 PM,30.2,24.8,80,29.87,0.2,West,15.0,25.3,N/A,Snow,Snow,280,2013-12-17 20:55:00
3:15 PM,30.2,23.0,75,29.88,3.0,West,8.1,-,N/A,Snow,Light Snow,270,2013-12-17 21:15:00
3:35 PM,30.2,21.2,69,29.88,10.0,West,8.1,-,N/A,,Mostly Cloudy,270,2013-12-17 21:35:00
3:55 PM,30.2,21.2,69,29.89,10.0,West,4.6,-,N/A,,Mostly Cloudy,270,2013-12-17 21:55:00
4:15 PM,30.2,23.0,75,29.90,10.0,NW,5.8,-,N/A,Snow,Light Snow,310,2013-12-17 22:15:00
4:35 PM,30.2,23.0,75,29.90,10.0,WNW,5.8,-,N/A,Snow,Light Snow,290,2013-12-17 22:35:00
4:55 PM,28.4,21.2,74,29.91,10.0,West,6.9,-,N/A,,Mostly Cloudy,270,2013-12-17 22:55:00
5:15 PM,28.4,19.4,69,29.92,10.0,West,8.1,-,N/A,,Mostly Cloudy,270,2013-12-17 23:15:00
5:35 PM,28.4,19.4,69,29.93,10.0,West,10.4,-,N/A,,Overcast,270,2013-12-17 23:35:00
5:55 PM,28.4,19.4,69,29.93,10.0,West,9.2,-,N/A,,Overcast,260,2013-12-17 23:55:00
6:15 PM,28.4,17.6,64,29.94,10.0,West,11.5,-,N/A,,Overcast,260,2013-12-18 00:15:00
6:35 PM,28.4,17.6,64,29.94,10.0,West,12.7,19.6,N/A,,Overcast,280,2013-12-18 00:35:00
6:55 PM,28.4,17.6,64,29.95,10.0,West,10.4,-,N/A,,Overcast,260,2013-12-18 00:55:00
7:15 PM,28.4,17.6,64,29.95,10.0,West,10.4,17.3,N/A,,Overcast,270,2013-12-18 01:15:00
7:35 PM,28.4,19.4,69,29.95,10.0,West,10.4,-,N/A,,Overcast,260,2013-12-18 01:35:00
7:55 PM,28.4,19.4,69,29.96,10.0,West,9.2,-,N/A,,Overcast,260,2013-12-18 01:55:00
8:15 PM,28.4,17.6,64,29.96,10.0,West,10.4,17.3,N/A,,Overcast,260,2013-12-18 02:15:00
8:35 PM,28.4,17.6,64,29.97,10.0,West,8.1,17.3,N/A,,Overcast,270,2013-12-18 02:35:00
8:55 PM,26.6,17.6,69,29.97,10.0,West,9.2,17.3,N/A,,Overcast,270,2013-12-18 02:55:00
9:15 PM,26.6,17.6,69,29.97,10.0,West,8.1,-,N/A,,Overcast,270,2013-12-18 03:15:00
9:35 PM,26.6,17.6,69,29.97,10.0,West,8.1,-,N/A,,Overcast,260,2013-12-18 03:35:00
9:55 PM,26.6,17.6,69,29.97,10.0,West,9.2,-,N/A,,Overcast,270,2013-12-18 03:55:00
10:55 PM,26.6,17.6,69,30.00,10.0,West,12.7,19.6,N/A,,Overcast,280,2013-12-18 04:55:00
11:15 PM,26.6,17.6,69,30.00,10.0,WNW,16.1,23.0,N/A,,Overcast,290,2013-12-18 05:15:00
11:35 PM,24.8,14.0,64,30.00,10.0,WNW,11.5,19.6,N/A,Snow,Light Snow,300,2013-12-18 05:35:00
11:55 PM,23.0,14.0,68,30.01,10.0,WNW,11.5,18.4,N/A,,Overcast,290,2013-12-18 05:55:00